Voltar ao catálogo

KUIPER-00141

AtivoComunicaçõesLEO
NORAD 65966·PAYLOAD·🇺🇸 United States

Lançado Oct 14, 2025 de Cape Canaveral Space Force Station

Loading…

Próximas Passagens (próximas 24 horas)

TLE

AtualizadoSource: CelesTrak SupGP

Época: Sep 14, 2026, 19:26 UTC

1 65966C 25228V   26257.81037037  .00004709  00000+0  61649-3 0  2577
2 65966  51.9013 224.4409 0000912  80.3595 152.4975 14.79918552    15

Acompanhe KUIPER-00141 em tempo real com AllMySat

Download on the App Store